Powrót do katalogu

NOAA 16 DEB

AktywnySSO
NORAD 42333·DEBRIS·🇺🇸 United States

Wystrzelony Sep 21, 2000 z Vandenberg Space Force Base

Loading…

Następne Przeloty (najbliższe 24 godziny)

TLE

ŚwieżeSource: Space-Track

Epoka: Sep 14, 2026, 14:05 UTC

1 42333U 00055PZ  26257.58704697  .00003177  00000-0  12602-2 0  9994
2 42333  98.9763  28.9775 0013097 325.7297  34.3037 14.29519090542777

Śledź NOAA 16 DEB w czasie rzeczywistym z AllMySat

Download on the App Store